This demonstration page uses our WeatherBlox Daily Observations layout. Learn more.

Hourly Observations for November 25, 2015

Temp ( °F °C ) Dew Point ( °F °C ) Humidity (%) Winds ( mph kmh ) Pressure ( in mb ) Visibility ( mi km ) Precip ( " mm )
12:15 am 00:15 Clear 35 1.5 32 -0.1 89 89 S 6 9 29.85 1011 10 16.0934 0 0
12:35 am 00:35 Clear 35 1.9 32 0 87 87 S 7 11 29.85 1011 10 16.0934 0 0
12:55 am 00:55 Clear 34 1.1 31 -0.4 90 90 S 8 13 29.85 1011 10 16.0934 0 0
1:15 am 01:15 Clear 33 0.5 31 -0.6 92 92 S 7 11 29.85 1011 10 16.0934 0 0
1:35 am 01:35 Clear 34 1.1 32 0 92 92 S 7 11 29.85 1011 10 16.0934 0 0
1:55 am 01:55 Clear 34 1.1 32 0 92 92 S 6 9 29.85 1011 10 16.0934 0 0
2:15 am 02:15 Clear 33 0.8 32 0 94 94 S 7 11 29.83 1010 10 16.0934 0 0
2:35 am 02:35 Clear 35 1.5 33 0.5 93 93 S 7 11 29.85 1011 10 16.0934 0 0
2:55 am 02:55 Clear 35 1.8 33 0.7 93 93 S 8 13 29.85 1011 10 16.0934 0 0
3:15 am 03:15 Clear 35 1.4 33 0.4 93 93 S 6 9 29.85 1011 10 16.0934 0 0
3:35 am 03:35 Clear 34 1.3 33 0.5 94 94 S 7 11 29.85 1011 10 16.0934 0 0
3:55 am 03:55 Clear 34 1.2 33 0.5 95 95 S 6 9 29.85 1011 7 11.26538 0 0
4:15 am 04:15 Clear 34 1 33 0.3 95 95 SSW 7 11 29.85 1011 7 11.26538 0 0
4:35 am 04:35 Cloudy with Mist and Fog 33 0.5 32 0 96 96 S 3 6 29.85 1011 0.75 1.207005 0 0
4:55 am 04:55 Cloudy with Fog 35 1.6 34 1 96 96 S 7 11 29.85 1011 0.25 0.402335 0 0
5:15 am 05:15 Cloudy with Fog 37 2.5 36 2 97 97 SSW 7 11 29.85 1011 0.25 0.402335 0 0
5:35 am 05:35 Cloudy with Light Rain 38 3.5 37 3 97 97 S 6 9 29.83 1010 0.25 0.402335 0 0
5:55 am 05:55 Cloudy with Fog 39 3.9 38 3.2 95 95 S 5 7 29.83 1010 0.25 0.402335 0 0
6:15 am 06:15 Cloudy with Fog 39 4 38 3.5 97 97 S 5 7 29.83 1010 0.25 0.402335 0 0
6:35 am 06:35 Cloudy with Fog 40 4.4 39 3.9 97 97 Calm 29.83 1010 0.25 0.402335 0 0
6:55 am 06:55 Cloudy with Fog 40 4.5 39 4 97 97 Calm 29.83 1010 0.25 0.402335 0 0
7:15 am 07:15 Cloudy with Fog 41 4.9 40 4.4 97 97 Calm 29.83 1010 0.25 0.402335 0 0
7:35 am 07:35 Cloudy with Fog 42 5.4 41 4.9 97 97 SSE 6 9 29.83 1010 0.5 0.80467 0 0
7:55 am 07:55 Cloudy with Mist and Fog 42 5.8 42 5.3 97 97 SE 3 6 29.83 1010 1.5 2.41401 0 0
8:15 am 08:15 Cloudy with Fog 43 5.9 42 5.4 97 97 Calm 29.85 1011 0.5 0.80467 0 0
8:35 am 08:35 Cloudy with Fog 43 6 42 5.5 97 97 Calm 29.85 1011 0.5 0.80467 0 0
8:55 am 08:55 Cloudy with Mist and Fog 39 3.8 38 3.3 97 97 N 5 7 29.91 1013 0.75 1.207005 0 0
9:15 am 09:15 Cloudy with Fog 38 3.5 37 3 97 97 N 6 9 29.88 1012 0.5 0.80467 0 0
9:35 am 09:35 Cloudy with Mist and Fog 39 4.1 38 3.6 97 97 N 6 9 29.91 1013 0.75 1.207005 0 0
9:55 am 09:55 Cloudy with Mist and Fog 40 4.5 39 4 97 97 N 8 13 29.88 1012 0.75 1.207005 0 0
10:15 am 10:15 Cloudy with Mist and Fog 40 4.6 40 4.2 97 97 N 3 6 29.91 1013 1.5 2.41401 0 0
10:35 am 10:35 Cloudy with Mist and Fog 41 5.1 40 4.7 97 97 N 7 11 29.91 1013 3 4.82802 0 0
10:55 am 10:55 Cloudy with Mist and Fog 42 5.7 41 5.2 97 97 N 9 15 29.91 1013 5 8.0467 0 0
11:15 am 11:15 Cloudy with Mist and Fog 42 5.5 41 5 97 97 N 9 15 29.88 1012 5 8.0467 0 0
11:35 am 11:35 Cloudy with Mist and Fog 43 6 42 5.5 97 97 N 9 15 29.88 1012 5 8.0467 0 0
11:55 am 11:55 Cloudy 44 6.4 43 6 97 97 NNE 8 13 29.88 1012 7 11.26538 0 0
12:15 pm 12:15 Cloudy 44 6.7 43 6.2 97 97 N 10 17 29.88 1012 7 11.26538 0 0
12:35 pm 12:35 Cloudy 43 6.2 42 5.7 97 97 N 14 22 29.88 1012 10 16.0934 0 0
12:55 pm 12:55 Cloudy 42 5.7 41 5.2 97 97 N 12 19 29.88 1012 10 16.0934 0 0
1:15 pm 13:15 Cloudy 41 5.2 40 4.7 97 97 N 13 20 29.88 1012 10 16.0934 0 0
1:35 pm 13:35 Cloudy 40 4.6 39 4 96 96 NNE 14 22 29.88 1012 10 16.0934 0 0
1:55 pm 13:55 Cloudy 40 4.5 38 3.6 94 94 NNE 13 20 29.88 1012 10 16.0934 0 0
2:15 pm 14:15 Cloudy 40 4.5 38 3.5 93 93 N 15 24 29.88 1012 10 16.0934 0 0
2:35 pm 14:35 Cloudy 41 4.9 38 3.6 91 91 N 16 26 29.88 1012 10 16.0934 0 0
2:55 pm 14:55 Cloudy 42 5.4 36 2 79 79 N 15 24 29.91 1013 10 16.0934 0 0
3:15 pm 15:15 Cloudy 42 5.5 35 1.8 77 77 N 14 22 29.91 1013 10 16.0934 0 0
3:35 pm 15:35 Cloudy 42 5.5 35 1.5 76 76 N 18 30 29.94 1014 10 16.0934 0 0
3:55 pm 15:55 Cloudy 42 5.5 34 1.2 74 74 NNE 17 28 29.94 1014 10 16.0934 0 0
4:15 pm 16:15 Cloudy 42 5.5 33 0.8 72 72 NNE 17 28 29.94 1014 10 16.0934 0 0
4:35 pm 16:35 Cloudy 42 5.4 33 0.6 71 71 NNE 18 30 30 1016 10 16.0934 0 0
4:55 pm 16:55 Cloudy 41 5.2 33 0.7 73 73 N 16 26 30 1016 10 16.0934 0 0
5:15 pm 17:15 Cloudy 41 5.1 32 0.1 70 70 NNE 16 26 30.03 1017 10 16.0934 0 0
5:35 pm 17:35 Cloudy 41 5 33 0.3 72 72 NNE 22 35 30.03 1017 10 16.0934 0 0
5:55 pm 17:55 Cloudy 40 4.5 33 0.3 74 74 NNE 20 31 30.03 1017 10 16.0934 0 0
6:15 pm 18:15 Cloudy 40 4.3 32 0.1 74 74 NNE 20 31 30.06 1018 10 16.0934 0 0
6:35 pm 18:35 Cloudy 39 4.1 32 0.1 75 75 NNE 17 28 30.06 1018 10 16.0934 0 0
6:55 pm 18:55 Cloudy 38 3.2 32 0 80 80 N 17 28 30.09 1019 10 16.0934 0 0
7:15 pm 19:15 Cloudy 37 2.5 32 0 84 84 N 18 30 30.06 1018 10 16.0934 0 0
7:35 pm 19:35 Cloudy 36 2.1 32 0 86 86 NNE 20 31 30.09 1019 10 16.0934 0 0
7:55 pm 19:55 Cloudy 36 2 32 -0.1 86 86 NNE 18 30 30.12 1020 10 16.0934 0 0
8:15 pm 20:15 Cloudy 35 1.8 32 -0.2 87 87 NNE 21 33 30.12 1020 10 16.0934 0 0
8:35 pm 20:35 Cloudy 35 1.7 32 -0.2 87 87 N 17 28 30.12 1020 10 16.0934 0 0
8:55 pm 20:55 Cloudy 35 1.5 31 -0.4 87 87 N 20 31 30.15 1021 10 16.0934 0 0
9:15 pm 21:15 Cloudy 35 1.5 31 -0.4 87 87 NNE 22 35 30.12 1020 10 16.0934 0 0
9:35 pm 21:35 Cloudy 34 1.3 31 -0.3 89 89 NNE 22 35 30.12 1020 10 16.0934 0 0
9:55 pm 21:55 Cloudy 34 1.1 31 -0.5 89 89 NNE 20 31 30.15 1021 10 16.0934 0 0
10:15 pm 22:15 Cloudy 34 1 31 -0.5 90 90 N 17 28 30.15 1021 10 16.0934 0 0
10:35 pm 22:35 Cloudy 34 1 31 -0.5 90 90 NNE 21 33 30.15 1021 10 16.0934 0 0
10:55 pm 22:55 Cloudy 34 1 31 -0.5 90 90 NNE 21 33 30.18 1022 10 16.0934 0 0
11:15 pm 23:15 Cloudy 33 0.8 31 -0.5 91 91 NNE 18 30 30.15 1021 7 11.26538 0 0
11:35 pm 23:35 Cloudy 33 0.8 31 -0.3 92 92 NNE 17 28 30.15 1021 7 11.26538 0 0
11:55 pm 23:55 Cloudy 33 0.8 31 -0.3 92 92 NNE 21 33 30.15 1021 7 11.26538 0 0

Powered by AerisWeather